Starlink 31957

operational
NORAD ID: 59926 Int'l Des: 2024-106 Owner: SPXS Country: US Constellation: starlink
LEOCIRCULAR

关于 Starlink 31957

正在加载描述...

实时位置

正在加载3D地球...

即将过境

高度历史

Altitude vs Time

uPlot chart will show altitude changes over time

两行轨道根数

1 59926U 24106E 26033.35811623 .00001032 00000-0 47028-4 0 9998
2 59926 42.9992 171.6848 0000942 268.0790 91.9954 15.27581045 95177
Epoch: Feb 2, 2026 • Age: 31 hours

当前状态

高度 482.4 km
速度 7.63 km/s
星下点 5.68°N, 22.79°W
发射日期 Jun 1, 2024
运行时间 1.6 years
类型 internet

技术详情

分类 Payload
质量 730.00 kg
干质量 700.00 kg
总质量 730.00 kg
长度 0.30 m
直径 4.10 m
跨度 29.00 m
形状 Box + pan
制造商 SPXS
平台类型 Starlink V2M
阶段状态 In Orbit
所有者/国家 SPXS/US

大型星座

Loading constellations...